Location: Buchberg
(46.9333°N, 15.8500°E)
Time: 04:36:23
(UTC+00:00)

Cosmos 1833 Rocket - Pass Details

Date: 14 July 2020
Orbit: 832 x 840 km, 71.0° (Epoch: 11 August)

Event Time Altitude Azimuth Distance (km) Brightness Sun altitude
Exits shadow 02:26:39 - 249° (WSW) 2,708 4.8 -7.5°
Reaches altitude 10° 02:27:29 10° 253° (WSW) 2,440 4.6 -7.4°
Maximum altitude 02:32:14 28° 311° (NW) 1,533 4.0 -6.8°
Drops below altitude 10° 02:37:01 10° 10° (N) 2,456 6.0 -6.2°
Sets 02:39:50 0° 22° (NNE) 3,395 7.1 -5.8°
